GW2352 Weather Reports


Display with metric or nautical units.
time (UTC)temp
F
wind
direction
speed
MPH
gust
MPH
rain 1hr
in
rain 24hr
in
rain mn
in
humidity
%
barometer
mb
20260507193138 59 134 0.0 1.0 0.00 0.00 0.00 84 1016.7
20260507192634 59 184 0.0 1.0 0.00 0.00 0.00 84 1016.7
20260507192131 59 96 0.0 0.0 0.00 0.00 0.00 84 1016.4
20260507191627 59 99 0.0 1.0 0.00 0.00 0.00 84 1016.6
20260507191124 59 166 1.0 1.0 0.00 0.00 0.00 83 1016.6
20260507190621 60 118 0.0 1.0 0.00 0.00 0.00 83 1016.5
20260507190120 60 142 0.0 0.0 0.00 0.00 0.00 82 1016.8
20260507185618 60 135 0.0 1.0 0.00 0.00 0.00 82 1016.7
20260507185114 60 142 0.0 0.0 0.00 0.00 0.00 80 1016.6
20260507184612 60 147 0.0 0.0 0.00 0.00 0.00 79 1016.7
20260507184110 61 141 0.0 0.0 0.00 0.00 0.00 79 1016.8
20260507183606 61 244 1.0 1.0 0.00 0.00 0.00 78 1016.7
20260507183103 62 146 0.0 1.0 0.00 0.00 0.00 75 1016.7
20260507182559 62 169 1.0 1.0 0.00 0.00 0.00 69 1016.7
20260507182055 63 180 0.0 0.0 0.00 0.00 0.00 70 1016.7
20260507181553 63 125 0.0 1.0 0.00 0.00 0.00 69 1016.5
20260507181049 63 134 0.0 1.0 0.00 0.00 0.00 68 1016.4
20260507180545 63 160 0.0 0.0 0.00 0.00 0.00 69 1016.5
20260507180042 64 173 0.0 0.0 0.00 0.00 0.00 67 1016.5
20260507175538 63 135 0.0 0.0 0.00 0.00 0.00 65 1016.6
20260507175036 64 225 1.0 1.0 0.00 0.00 0.00 66 1016.7
20260507174533 64 144 0.0 0.0 0.00 0.00 0.00 65 1016.5
20260507174031 64 146 0.0 0.0 0.00 0.00 0.00 65 1016.4
20260507173527 64 114 0.0 1.0 0.00 0.00 0.00 66 1016.6
20260507173025 64 140 0.0 1.0 0.00 0.00 0.00 64 1016.3
20260507172520 65 147 0.0 0.0 0.00 0.00 0.00 64 1016.1
20260507172017 65 148 1.0 1.0 0.00 0.00 0.00 64 1016.2
20260507171513 65 146 1.0 1.0 0.00 0.00 0.00 61 1016.3
20260507171010 65 132 1.0 1.0 0.00 0.00 0.00 62 1016.2
20260507170507 65 133 0.0 0.0 0.00 0.00 0.00 63 1016.3
20260507170003 65 132 0.0 0.0 0.00 0.00 0.00 62 1016.5
20260507165459 66 131 1.0 1.0 0.00 0.00 0.00 61 1016.2
20260507164950 66 162 1.0 1.0 0.00 0.00 0.00 59 1016.3
20260507164447 66 229 2.0 2.0 0.00 0.00 0.00 60 1016.0
20260507163944 66 135 0.0 0.0 0.00 0.00 0.00 61 1016.1
20260507163442 66 137 0.0 0.0 0.00 0.00 0.00 61 1016.2
20260507162938 67 135 0.0 0.0 0.00 0.00 0.00 60 1015.9
20260507162434 67 130 2.0 2.0 0.00 0.00 0.00 60 1015.9
20260507161931 68 154 0.0 0.0 0.00 0.00 0.00 61 1015.8
20260507161428 68 209 0.0 1.0 0.00 0.00 0.00 61 1016.1
20260507160924 69 151 0.0 1.0 0.00 0.00 0.00 60 1015.8
20260507160420 70 205 0.0 1.0 0.00 0.00 0.00 60 1015.9
20260507155916 71 319 0.0 1.0 0.00 0.00 0.00 58 1015.7
20260507155412 71 118 1.0 2.0 0.00 0.00 0.00 58 1015.8
20260507154909 71 204 2.0 2.0 0.00 0.00 0.00 58 1015.8
20260507154406 72 133 0.0 1.0 0.00 0.00 0.00 58 1016.0
20260507153903 72 144 0.0 1.0 0.00 0.00 0.00 57 1015.7
20260507153359 72 120 1.0 1.0 0.00 0.00 0.00 56 1015.8
20260507152856 73 157 0.0 1.0 0.00 0.00 0.00 55 1015.9
20260507152353 74 152 1.0 1.0 0.00 0.00 0.00 53 1016.1
20260507151849 73 162 0.0 0.0 0.00 0.00 0.00 54 1016.1
20260507151345 74 153 1.0 1.0 0.00 0.00 0.00 52 1016.1
20260507150842 74 149 0.0 0.0 0.00 0.00 0.00 54 1016.1
20260507150339 74 152 1.0 1.0 0.00 0.00 0.00 54 1016.2
20260507145835 73 144 1.0 2.0 0.00 0.00 0.00 54 1016.0
20260507145331 75 146 2.0 2.0 0.00 0.00 0.00 51 1015.8
20260507144828 75 170 1.0 2.0 0.00 0.00 0.00 52 1015.9
20260507144326 75 153 1.0 2.0 0.00 0.00 0.00 51 1016.0
20260507143822 75 286 3.0 5.0 0.00 0.00 0.00 51 1016.1
20260507143319 76 281 2.0 3.0 0.00 0.00 0.00 51 1015.9
20260507142814 76 179 1.0 2.0 0.00 0.00 0.00 51 1015.9
20260507142311 77 1 3.0 3.0 0.00 0.00 0.00 50 1015.9
20260507141808 77 158 1.0 2.0 0.00 0.00 0.00 50 1015.8
20260507141305 76 164 1.0 2.0 0.00 0.00 0.00 51 1015.9
20260507140801 77 170 3.0 3.0 0.00 0.00 0.00 48 1015.9
20260507140258 77 311 2.0 2.0 0.00 0.00 0.00 50 1015.6
20260507135756 77 129 0.0 0.0 0.00 0.00 0.00 50 1015.7
20260507135248 78 164 2.0 3.0 0.00 0.00 0.00 50 1015.9
20260507134744 78 151 2.0 2.0 0.00 0.00 0.00 50 1015.9
20260507134241 80 32 1.0 1.0 0.00 0.00 0.00 51 1016.0
20260507133736 79 275 0.0 1.0 0.00 0.00 0.00 52 1015.8
20260507133233 78 157 1.0 2.0 0.00 0.00 0.00 51 1015.8
20260507132731 76 123 2.0 5.0 0.00 0.00 0.00 53 1015.8
20260507132227 77 336 3.0 5.0 0.00 0.00 0.00 52 1015.9
20260507131724 77 306 3.0 7.0 0.00 0.00 0.00 54 1015.9
20260507131221 78 268 2.0 2.0 0.00 0.00 0.00 54 1016.0
20260507130718 76 14 1.0 1.0 0.00 0.00 0.00 55 1015.9
20260507130216 76 268 4.0 6.0 0.00 0.00 0.00 54 1015.9
20260507125714 77 247 4.0 6.0 0.00 0.00 0.00 53 1015.9
20260507125212 77 297 3.0 5.0 0.00 0.00 0.00 54 1016.0
20260507124708 77 328 4.0 5.0 0.00 0.00 0.00 54 1016.0
20260507124205 78 296 1.0 2.0 0.00 0.00 0.00 54 1015.8
20260507123703 78 292 3.0 7.0 0.00 0.00 0.00 55 1016.0
20260507123200 78 174 2.0 3.0 0.00 0.00 0.00 54 1015.9
20260507122655 77 131 2.0 2.0 0.00 0.00 0.00 56 1015.7
20260507122152 77 171 3.0 3.0 0.00 0.00 0.00 56 1016.0
20260507121648 78 154 1.0 1.0 0.00 0.00 0.00 55 1015.8
20260507121144 78 246 2.0 3.0 0.00 0.00 0.00 56 1015.9
20260507120640 77 126 0.0 1.0 0.00 0.00 0.00 57 1016.0
20260507120137 78 236 3.0 3.0 0.00 0.00 0.00 55 1016.0
20260507115633 77 310 2.0 5.0 0.00 0.00 0.00 57 1015.9
20260507115129 78 146 2.0 3.0 0.00 0.00 0.00 55 1015.9
20260507114625 78 91 1.0 2.0 0.00 0.00 0.00 55 1015.9
20260507114122 77 283 2.0 3.0 0.00 0.00 0.00 57 1016.1
20260507113619 78 221 6.0 7.0 0.00 0.00 0.00 55 1016.1
20260507113116 79 259 2.0 2.0 0.00 0.00 0.00 54 1016.1
20260507112614 78 143 0.0 1.0 0.00 0.00 0.00 56 1016.1
20260507112111 77 202 1.0 1.0 0.00 0.00 0.00 57 1016.2
20260507111608 77 319 4.0 6.0 0.00 0.00 0.00 57 1016.4
20260507111104 77 324 1.0 3.0 0.00 0.00 0.00 58 1016.3
20260507110601 77 28 1.0 1.0 0.00 0.00 0.00 59 1016.2
20260507110057 77 78 1.0 1.0 0.00 0.00 0.00 59 1016.3
20260507105554 78 57 1.0 2.0 0.00 0.00 0.00 58 1016.5
20260507105050 78 359 5.0 7.0 0.00 0.00 0.00 58 1016.0
20260507104548 78 347 2.0 3.0 0.00 0.00 0.00 59 1016.4
20260507104044 77 180 3.0 3.0 0.00 0.00 0.00 60 1016.3
20260507103540 77 322 3.0 3.0 0.00 0.00 0.00 60 1016.4
20260507103037 76 328 3.0 5.0 0.00 0.00 0.00 60 1016.5
20260507102533 75 357 4.0 6.0 0.00 0.00 0.00 62 1016.4
20260507102031 76 286 4.0 6.0 0.00 0.00 0.00 60 1016.5
20260507101525 77 296 5.0 6.0 0.00 0.00 0.00 60 1016.7
20260507101022 76 142 5.0 8.0 0.00 0.00 0.00 61 1016.6
20260507100520 76 190 3.0 3.0 0.00 0.00 0.00 58 1016.6
20260507100017 76 186 3.0 5.0 0.00 0.00 0.00 59 1016.6
20260507095515 76 213 3.0 3.0 0.00 0.00 0.00 57 1016.5
20260507095011 77 147 6.0 7.0 0.00 0.00 0.00 54 1016.6
20260507094508 76 156 1.0 1.0 0.00 0.00 0.00 53 1016.6
20260507094005 76 269 2.0 2.0 0.00 0.00 0.00 53 1016.8
20260507093502 75 177 4.0 6.0 0.00 0.00 0.00 55 1017.2
20260507093001 75 145 0.0 0.0 0.00 0.00 0.00 55 1017.3
20260507092456 75 167 1.0 1.0 0.00 0.00 0.00 54 1017.2
20260507091953 73 197 3.0 3.0 0.00 0.00 0.00 55 1017.4
20260507091449 74 196 2.0 3.0 0.00 0.00 0.00 55 1017.6
20260507090945 74 164 1.0 1.0 0.00 0.00 0.00 57 1017.4
20260507090442 73 294 2.0 3.0 0.00 0.00 0.00 56 1017.5
20260507085938 74 142 2.0 3.0 0.00 0.00 0.00 56 1017.6
20260507085435 74 171 3.0 3.0 0.00 0.00 0.00 56 1017.9
20260507084932 73 144 0.0 0.0 0.00 0.00 0.00 59 1017.9
20260507084429 73 159 0.0 1.0 0.00 0.00 0.00 61 1017.7
20260507083926 72 160 4.0 6.0 0.00 0.00 0.00 60 1018.0
20260507083423 72 135 3.0 5.0 0.00 0.00 0.00 61 1017.8
20260507082919 71 145 2.0 2.0 0.00 0.00 0.00 61 1017.8
20260507082415 71 348 2.0 3.0 0.00 0.00 0.00 62 1017.9
20260507081912 71 170 3.0 5.0 0.00 0.00 0.00 63 1017.9
20260507081408 70 156 2.0 2.0 0.00 0.00 0.00 64 1018.0
20260507080905 70 171 1.0 2.0 0.00 0.00 0.00 65 1018.1
20260507080401 71 208 5.0 7.0 0.00 0.00 0.00 65 1018.2
20260507075857 70 178 1.0 1.0 0.00 0.00 0.00 66 1018.2
20260507075353 71 168 1.0 2.0 0.00 0.00 0.00 66 1018.4
20260507074849 70 155 1.0 2.0 0.00 0.00 0.00 66 1018.1
20260507074347 69 165 3.0 3.0 0.00 0.00 0.00 67 1018.1
20260507073844 68 168 2.0 2.0 0.00 0.00 0.00 67 1018.1
20260507073340 68 169 0.0 1.0 0.00 0.00 0.00 68 1018.0
20260507072838 68 198 1.0 2.0 0.00 0.00 0.00 68 1018.1
20260507072335 68 142 1.0 1.0 0.00 0.00 0.00 68 1018.0
20260507071832 67 175 1.0 2.0 0.00 0.00 0.00 70 1018.0
20260507071329 67 153 2.0 2.0 0.00 0.00 0.00 69 1018.2
20260507070825 67 135 3.0 5.0 0.00 0.00 0.00 70 1018.2
20260507070323 66 181 3.0 3.0 0.00 0.00 0.00 70 1018.2
20260507065820 66 186 3.0 5.0 0.00 0.00 0.00 71 1018.3
20260507065316 65 149 4.0 5.0 0.00 0.00 0.00 72 1018.3
20260507064814 65 179 2.0 2.0 0.00 0.00 0.00 70 1018.2
20260507064312 65 180 2.0 3.0 0.00 0.00 0.00 72 1018.3
20260507063810 65 157 3.0 3.0 0.00 0.00 0.00 71 1018.3
20260507063306 64 141 1.0 1.0 0.00 0.00 0.00 73 1018.4
20260507062803 64 130 1.0 2.0 0.00 0.00 0.00 73 1018.4
20260507062300 64 155 1.0 1.0 0.00 0.00 0.00 74 1018.0
20260507061758 63 158 0.0 1.0 0.00 0.00 0.00 75 1018.2
20260507061256 63 137 0.0 0.0 0.00 0.00 0.00 74 1018.3
20260507060754 63 154 1.0 1.0 0.00 0.00 0.00 75 1018.2
20260507060250 62 139 0.0 0.0 0.00 0.00 0.00 76 1018.1
20260507055747 62 139 0.0 0.0 0.00 0.00 0.00 75 1018.4
20260507055242 62 141 0.0 0.0 0.00 0.00 0.00 76 1018.1
20260507054738 61 141 1.0 1.0 0.00 0.00 0.00 77 1018.4
20260507054235 60 139 0.0 0.0 0.00 0.00 0.00 76 1018.3
20260507053733 60 151 0.0 1.0 0.00 0.00 0.00 77 1018.3
20260507053230 60 154 1.0 1.0 0.00 0.00 0.00 77 1018.1
20260507052729 59 137 0.0 0.0 0.00 0.00 0.00 78 1018.3
20260507052225 59 138 0.0 1.0 0.00 0.00 0.00 78 1018.5
20260507051723 59 152 1.0 1.0 0.00 0.00 0.00 80 1018.4
20260507051220 58 125 0.0 1.0 0.00 0.00 0.00 80 1018.0
20260507050716 58 137 0.0 0.0 0.00 0.00 0.00 82 1018.0
20260507050214 58 122 0.0 0.0 0.00 0.00 0.00 83 1018.3
20260507045710 57 126 0.0 1.0 0.00 0.00 0.00 83 1018.0
20260507045206 57 123 0.0 0.0 0.00 0.00 0.00 84 1018.1
20260507044704 57 131 0.0 0.0 0.00 0.00 0.00 84 1018.2
20260507044200 57 130 0.0 0.0 0.00 0.00 0.00 84 1018.1
20260507043656 56 126 1.0 2.0 0.00 0.00 0.00 84 1018.1
20260507043153 56 133 1.0 2.0 0.00 0.00 0.00 85 1018.0
20260507042650 55 133 0.0 0.0 0.00 0.00 0.00 85 1018.0
20260507042144 55 133 0.0 0.0 0.00 0.00 0.00 85 1017.9
20260507041642 55 132 0.0 1.0 0.00 0.00 0.00 86 1018.0
20260507041138 54 135 0.0 0.0 0.00 0.00 0.00 87 1018.0
20260507040636 54 130 1.0 1.0 0.00 0.00 0.00 87 1018.1
20260507040132 54 129 0.0 0.0 0.00 0.00 0.00 89 1017.8
20260507035628 53 134 0.0 0.0 0.00 0.00 0.00 89 1017.8
20260507035124 53 134 0.0 0.0 0.00 0.00 0.00 89 1017.8
20260507034621 53 135 0.0 0.0 0.00 0.00 0.00 89 1017.8
20260507034118 53 139 0.0 0.0 0.00 0.00 0.00 89 1017.7
20260507033617 53 134 0.0 0.0 0.00 0.00 0.00 89 1017.5
20260507033114 53 132 0.0 0.0 0.00 0.00 0.00 89 1017.6
20260507032611 53 128 0.0 0.0 0.00 0.00 0.00 89 1017.6
20260507032107 53 132 0.0 0.0 0.00 0.00 0.00 90 1017.5
20260507031603 53 129 0.0 0.0 0.00 0.00 0.00 90 1017.4
20260507031100 52 138 0.0 0.0 0.00 0.00 0.00 90 1017.4
20260507030557 52 133 0.0 0.0 0.00 0.00 0.00 90 1017.4
20260507030055 53 153 0.0 0.0 0.00 0.00 0.00 90 1017.4
20260507025552 52 139 0.0 0.0 0.00 0.00 0.00 89 1017.4
20260507025049 53 133 0.0 0.0 0.00 0.00 0.00 89 1017.4
20260507024547 53 131 0.0 0.0 0.00 0.00 0.00 89 1017.1
20260507024043 53 133 0.0 0.0 0.00 0.00 0.00 89 1017.3
20260507023539 52 135 0.0 0.0 0.00 0.00 0.00 89 1017.1
20260507023037 52 133 0.0 0.0 0.00 0.00 0.00 89 1017.2
20260507022533 52 137 0.0 0.0 0.00 0.00 0.00 88 1016.9
20260507022029 53 137 0.0 0.0 0.00 0.00 0.00 88 1017.1
20260507021525 53 137 0.0 0.0 0.00 0.00 0.00 88 1017.1
20260507021022 53 135 0.0 0.0 0.00 0.00 0.00 88 1017.1
20260507020520 53 133 0.0 0.0 0.00 0.00 0.00 88 1017.2
20260507020016 53 134 0.0 0.0 0.00 0.00 0.00 88 1017.1
20260507015514 53 133 0.0 0.0 0.00 0.00 0.00 88 1017.3
20260507015011 53 134 0.0 0.0 0.00 0.00 0.00 89 1016.8
20260507014508 53 133 0.0 0.0 0.00 0.00 0.00 89 1016.8
20260507014004 53 133 0.0 0.0 0.00 0.00 0.00 89 1017.1
20260507013500 53 137 0.0 0.0 0.00 0.00 0.00 89 1017.2
20260507012958 53 137 0.0 0.0 0.00 0.00 0.00 89 1016.9
20260507012455 53 137 0.0 0.0 0.00 0.00 0.00 89 1017.1
20260507011951 53 135 0.0 0.0 0.00 0.00 0.00 89 1017.3
20260507011448 53 135 0.0 0.0 0.00 0.00 0.00 89 1017.1
20260507010943 53 134 0.0 0.0 0.00 0.00 0.00 89 1017.2
20260507010438 53 137 0.0 0.0 0.00 0.00 0.00 89 1017.2
20260507005935 53 137 0.0 0.0 0.00 0.00 0.00 89 1017.1
20260507005433 53 137 0.0 0.0 0.00 0.00 0.00 89 1017.2
20260507004929 53 137 0.0 0.0 0.00 0.00 0.00 89 1017.1
20260507004426 53 131 0.0 0.0 0.00 0.00 0.00 89 1016.8
20260507003923 53 131 0.0 0.0 0.00 0.00 0.00 89 1017.1
20260507003418 53 133 0.0 0.0 0.00 0.00 0.00 89 1017.1
20260507002914 53 129 0.0 0.0 0.00 0.00 0.00 89 1016.9
20260507002410 53 133 0.0 0.0 0.00 0.00 0.00 89 1017.1
20260507001907 53 133 0.0 0.0 0.00 0.00 0.00 89 1016.8
20260507001404 53 137 0.0 0.0 0.00 0.00 0.00 89 1017.2
20260507000856 53 133 0.0 0.0 0.00 0.00 0.00 89 1017.1
20260507000351 53 133 0.0 0.0 0.00 0.00 0.00 89 1017.4
20260506235847 53 133 0.0 0.0 0.00 0.00 0.00 89 1017.3
20260506235344 53 133 0.0 0.0 0.00 0.00 0.00 89 1017.2
20260506234840 53 133 0.0 0.0 0.00 0.00 0.00 88 1017.1
20260506234338 53 133 0.0 0.0 0.00 0.00 0.00 88 1017.3
20260506233835 54 133 0.0 0.0 0.00 0.00 0.00 88 1016.9
20260506233331 54 135 0.0 0.0 0.00 0.00 0.00 88 1017.2
20260506232828 53 133 0.0 0.0 0.00 0.00 0.00 87 1017.1
20260506232324 54 133 0.0 0.0 0.00 0.00 0.00 87 1017.2
20260506231820 54 133 0.0 0.0 0.00 0.00 0.00 87 1017.3
20260506231318 54 134 0.0 0.0 0.00 0.00 0.00 87 1017.1
20260506230815 54 129 0.0 0.0 0.00 0.00 0.00 87 1017.1
20260506230312 54 128 0.0 0.0 0.00 0.00 0.00 87 1017.2
20260506225808 54 135 0.0 0.0 0.00 0.00 0.00 87 1017.1
20260506225306 54 137 0.0 0.0 0.00 0.00 0.00 86 1017.2
20260506224802 54 137 0.0 0.0 0.00 0.00 0.00 86 1017.2
20260506224259 55 135 0.0 0.0 0.00 0.00 0.00 86 1017.2
20260506223755 55 128 0.0 0.0 0.00 0.00 0.00 86 1016.8
20260506223251 55 134 0.0 0.0 0.00 0.00 0.00 86 1016.9
20260506222748 55 133 0.0 0.0 0.00 0.00 0.00 85 1017.4
20260506222244 55 133 0.0 0.0 0.00 0.00 0.00 85 1017.4
20260506221742 55 139 0.0 0.0 0.00 0.00 0.00 84 1017.6
20260506221240 55 139 0.0 0.0 0.00 0.00 0.00 84 1017.3
20260506220731 56 131 0.0 0.0 0.00 0.00 0.00 84 1017.4
20260506220226 55 137 0.0 0.0 0.00 0.00 0.00 84 1017.5
20260506215723 55 137 0.0 0.0 0.00 0.00 0.00 84 1017.4
20260506215219 55 139 0.0 0.0 0.00 0.00 0.00 84 1017.7
20260506214715 56 134 0.0 0.0 0.00 0.00 0.00 83 1017.4
20260506214213 56 208 0.0 0.0 0.00 0.00 0.00 83 1017.5
20260506213711 56 134 0.0 0.0 0.00 0.00 0.00 82 1017.8
20260506213208 56 139 0.0 0.0 0.00 0.00 0.00 81 1017.8
20260506212705 57 135 0.0 0.0 0.00 0.00 0.00 81 1017.5
20260506212200 57 137 0.0 0.0 0.00 0.00 0.00 80 1017.5
20260506211655 57 173 0.0 0.0 0.00 0.00 0.00 80 1017.7
20260506211152 57 197 0.0 0.0 0.00 0.00 0.00 80 1017.8
20260506210649 57 154 0.0 0.0 0.00 0.00 0.00 80 1017.7
20260506210146 57 114 0.0 1.0 0.00 0.00 0.00 80 1017.5
20260506205643 57 137 0.0 0.0 0.00 0.00 0.00 80 1017.7
20260506205138 57 208 1.0 2.0 0.00 0.00 0.00 80 1017.6
20260506204636 57 172 0.0 0.0 0.00 0.00 0.00 80 1017.7
20260506204132 57 139 0.0 1.0 0.00 0.00 0.00 80 1017.8
20260506203631 57 115 0.0 0.0 0.00 0.00 0.00 80 1017.6
20260506203127 57 133 0.0 0.0 0.00 0.00 0.00 80 1017.9
20260506202625 57 139 0.0 1.0 0.00 0.00 0.00 80 1017.8
20260506202121 57 139 0.0 0.0 0.00 0.00 0.00 80 1017.7
20260506201619 57 129 0.0 0.0 0.00 0.00 0.00 80 1017.8
20260506201115 57 137 0.0 0.0 0.00 0.00 0.00 80 1017.7
20260506200611 57 178 1.0 1.0 0.00 0.00 0.00 80 1018.1
20260506200108 57 142 0.0 0.0 0.00 0.00 0.00 80 1017.7
20260506195605 58 140 0.0 0.0 0.00 0.00 0.00 80 1017.8
20260506195101 58 139 0.0 0.0 0.00 0.00 0.00 80 1017.7
20260506194559 58 147 0.0 1.0 0.00 0.00 0.00 80 1017.6
20260506194055 58 163 0.0 0.0 0.00 0.00 0.00 80 1017.8
20260506193553 58 125 0.0 1.0 0.00 0.00 0.00 80 1017.9